Probability
0 0 0 0 0 0 0 0 0 0 0 0 0 0 0 0 0 0 0 0 0 0 0 0 0 0 0 0 0 0 0 0 0 0 0 0 0 0 0 0 0 0 0 0
0 0 0 0 0 0 0 0 0 0 0 0 0 0 0 0 0 0 0 0 0 0 0 0 0 0 0 0 0 0 0 0 0 0 0 0 0 0 0 0 0 0 0 0
0 0 0 0 0 0 0 0 0 0 0 0 0 0 0 0 0 0 0 0 0 0 0 0 0 0 0 0 0 0 0 0 0 0 0 0 0 0 0 0 0 0 0 0
0 0 0 0 0 0 0 0 0 0 0 0 0 0 0 0 0 0 0 0 0 0 0 0 0 0 0 0 0 0 0 0 0 0 0 0 0 0 0 0 0 0 0 0
0 0 0 0 0 0 0 0 0 0 0 0 0 0 0 0 0 0 0 0 0 0 0 0 0 0 0 0 0 0 0 0 0 0 0 0 0 0 0 0 0 0 0 0
0 0 0 0 0 0 0 0 0 0 0 0 0 0 0 0 0 0 0 0 0 0 0 0 0 0 0 0 0 0 0 0 0 0 0 0 0 0 0 0 0 0 0 0
0 0 0 0 0 0 0 0 0 0 0 0 0 0 0 0 0 0 0 0 0 0 0 0 0 0 0 0 0 0 0 0 1 0 0 0 0 0 0 0 0 0 0 0
0 0 0 0 0 0 0 0 0 0 0 0 0 0 0 0 0 0 0 0 0 0 0 0 0 0 0 0 0 0 0 0 0 0 0 0 0 0 0 0 0 0 0 0
0 0 0 0 0 0 0 0 0 0 0 0 0 0 0 0 0 0 0 0 0 0 0 0 0 0 0 0 0 0 0 0 0 0 0 0 0 0 0 0 0 0 0 0
0 0 0 0 0 0 0 0 0 0 0 0 0 0 0 0 0 0 0 0 0 0 0 0 0 0 0 0 0 0 0 0 0 0 0 0 0 0 0 0 0 0 0 0
0 0 0 0 0 0 0 0 0 0 0 0 0 0 0 0 0 0 0 0 0 0 0 0 0 0 0 0 0 0 0 0 0 0 0 0 0 0 0 0 0 0 0 0
0 0 0 0 0 0 0 0 0 0 0 0 0 0 0 0 0 0 0 0 0 0 0 0 0 0 0 0 0 0 0 0 0 0 0 0 0 0 0 0 0 0 0 0
0 0 0 0 0 0 0 0 0 0 0 0 0 0 0 0 0 0 0 0 0 0 0 0 0 0 0 0 0 0 0 0 0 0 0 0 0 0 0 0 0 0 0 0
0 0 0 0 0 0 0 0 0 0 0 0 0 0 0 0 0 0 0 0 0 0 0 0 0 0 0 0 0 0 0 0 0 0 0 0 0 0 0 0 0 0 0 0
0 0 0 0 0 0 0 0 0 0 0 0 0 0 0 0 0 0 0 0 0 0 0 0 0 0 0 0 0 0 0 0 0 0 0 0 0 0 0 0 0 0 0 0
0 0 0 0 0 0 0 0 0 0 0 0 0 0 0 0 0 0 0 0 0 0 0 0 0 0 0 0 0 0 0 0 0 0 0 0 0 0 0 0 0 0 0 0
0 0 0 0 0 0 0 0 0 0 0 0 0 0 0 0 0 0 0 0 0 0 0 0 0 0 0 0 0 0 0 0 0 0 0 0 0 0 0 0 0 0 0 0
0 0 0 0 0 0 0 0 0 0 0 0 0 0 0 0 0 0 0 0 0 0 0 0 0 0 0 0 0 0 0 0 0 0 0 0 0 0 0 0 0 0 0 0
0 0 0 0 0 0 0 0 0 0 0 0 0 0 0 0 0 0 0 0 0 0 0 0 0 0 0 0 0 0 0 0 0 0 0 0 0 0 0 0 0 0 0 0
0 0 0 0 0 0 0 0 0 0 0 0 0 0 0 0 0 0 0 0 0 0 0 0 0 0 0 0 0 0 0 0 0 0 0 0 0 0 0 0 0 0 0 0
0 0 0 0 0 0 0 0 0 0 0 0 0 0 0 0 0 0 0 0 0 0 0 0 0 0 0 0 0 0 0 0 0 0 0 0 0 0 0 0 0 0 0 0
0 0 0 0 0 0 0 0 0 0 0 0 0 0 0 0 0 0 0 0 0 0 0 0 0 0 0 0 0 0 0 0 0 0 0 0 0 0 0 0 0 0 0 0
0 0 0 0 0 0 0 0 0 0 0 0 0 0 0 0 0 0 0 0 0 0 0 0 0 0 0 0 0 0 0 0 0 0 0 0 0 0 0 0 0 0 0 0
0 0 0 0 0 0 0 0 0 0 0 0 0 0 0 0 0 0 0 0 0 0 0 0 0 0 0 0 0 0 0 0 0 0 0 0 0 0 0 0 0 0 0 0
0 0 0 0 0 0 0 0 0 0 0 0 0 0 0 0 0 0 0 0 0 0 0 0 0 0 0 0 0 0 0 0 0 0 0 0 0 0 0 0 0 0 0 0
0 0 0 0 0 0 0 0 0 0 0 0 0 0 0 0 0 0 0 0 0 0 0 0 0 0 0 0 0 0 0 0 0 0 0 0 0 0 0 0 0 0 0 0
0 0 0 0 0 0 0 0 0 0 0 0 0 0 0 0 0 0 0 0 0 0 0 0 0 0 0 0 0 0 0 0 0 0 0 0 0 0 0 0 0 0 0 0
Wind_Speed
8 6 5 8 8 8 11 11 11 12 12 13 9 7 7 7 7 7 7 6 6 5 5 4 4 3 4 3 3 3 3 4 4 3 3 3 4 4 4 5 6 6 6 6
6 4 5 9 11 11 12 10 12 13 16 10 7 5 6 7 7 7 8 8 7 6 6 5 4 4 4 3 3 2 3 4 3 3 3 3 4 4 5 5 5 5 6 6
5 3 4 10 9 10 7 8 9 13 12 5 6 7 7 7 7 7 8 8 7 7 6 5 4 4 4 3 2 2 2 3 3 3 4 4 4 4 5 5 5 6 6 6
3 2 9 7 1 5 6 7 7 7 6 6 7 8 7 6 6 8 8 7 7 6 6 5 3 3 2 2 2 2 2 3 3 3 4 3 4 5 5 5 5 6 6 6
2 4 10 7 2 3 4 7 5 7 8 8 6 6 5 3 3 6 7 6 6 5 5 4 3 2 1 1 1 2 3 3 3 3 3 4 4 5 5 4 5 5 6 6
3 4 9 6 1 1 1 6 2 3 6 6 5 5 6 5 6 7 6 4 4 4 3 3 2 0 0 1 1 3 3 4 3 3 4 4 5 5 4 4 5 5 5 5
6 7 10 5 1 1 2 6 3 3 5 4 3 6 6 8 7 5 5 4 3 3 3 3 2 1 1 1 2 3 3 3 3 3 3 4 4 4 4 4 4 4 5 5
5 6 10 1 2 4 5 3 3 4 4 4 5 6 7 7 6 6 5 4 3 3 4 4 2 1 1 2 3 3 3 3 3 3 3 3 3 3 3 3 3 4 4 4
9 8 3 2 4 4 3 3 4 4 5 4 5 6 6 6 5 5 4 4 3 2 3 4 3 2 2 3 3 2 2 3 3 3 3 3 3 3 2 2 2 3 3 4
6 7 5 4 5 5 4 4 5 4 4 4 5 6 6 5 5 4 4 3 2 2 3 4 4 3 2 3 3 2 2 3 3 3 3 4 3 3 2 2 3 3 3 3
6 6 5 4 4 5 5 5 4 5 4 4 5 6 5 5 4 3 3 3 2 2 3 3 3 3 3 3 2 3 3 3 3 3 3 3 4 3 3 3 4 4 4 4
6 4 4 6 5 4 4 4 5 5 5 4 4 5 4 4 4 3 3 3 3 3 3 3 3 3 4 3 2 2 3 3 3 2 3 3 3 4 5 5 6 7 7 5
5 5 4 5 5 3 3 4 4 4 4 5 4 3 3 3 3 3 3 3 3 3 3 2 2 3 4 3 3 3 3 3 2 2 3 3 3 3 3 5 6 6 6 6
4 3 4 4 5 4 3 4 3 3 4 3 3 3 3 3 3 3 3 3 3 2 2 2 3 3 4 3 3 3 3 3 3 2 2 2 3 3 2 3 3 4 5 6
5 3 4 4 4 4 3 3 4 4 4 4 4 3 3 3 4 4 4 3 3 3 3 3 3 4 4 3 3 3 2 2 2 2 2 2 2 3 3 3 3 3 3 3
5 3 2 3 4 5 4 4 3 4 4 4 4 4 4 3 3 3 3 3 2 3 3 3 3 4 3 3 3 2 2 5 4 2 2 2 2 2 3 3 2 2 3 3
3 4 4 5 5 5 4 3 3 3 4 4 4 4 4 3 3 4 4 3 3 3 3 3 4 4 3 3 2 2 2 3 6 4 3 2 2 2 2 2 2 2 3 4
3 3 3 3 4 4 4 4 3 3 3 4 4 4 3 3 3 4 4 4 3 4 4 4 4 3 3 3 2 2 2 2 2 3 3 3 3 3 3 3 3 3 3 4
3 3 3 3 3 2 3 4 4 3 3 3 3 3 4 3 3 3 3 3 3 4 5 5 6 4 3 4 3 1 2 2 2 3 3 4 4 3 3 3 3 3 3 3
4 4 3 3 3 3 3 3 3 3 3 3 3 3 4 4 3 3 3 3 2 3 4 5 4 3 3 3 4 1 1 2 2 2 2 3 3 3 3 3 3 3 3 3
5 4 4 3 4 3 3 3 3 3 4 3 2 3 4 4 3 2 2 3 4 4 4 6 3 3 3 3 4 1 1 2 2 2 2 3 3 3 3 3 3 3 3 3
4 4 4 3 3 4 4 3 3 3 3 3 3 3 3 4 3 3 3 3 4 6 4 3 3 4 5 5 1 1 1 2 2 2 2 3 3 3 3 3 3 4 4 3
4 4 4 3 3 4 4 3 3 3 3 3 3 3 3 3 2 2 4 3 3 6 4 3 5 7 7 3 1 2 2 2 2 3 3 3 3 3 3 4 4 4 4 4
4 4 4 3 3 3 4 4 3 3 3 3 3 3 2 2 3 2 3 5 7 7 3 5 8 8 7 2 2 2 2 3 3 3 3 3 3 3 3 4 4 4 4 4
4 4 4 4 3 3 4 4 3 3 3 3 3 3 2 2 2 3 3 4 6 6 4 6 8 8 4 2 2 3 3 3 3 3 3 3 3 3 3 4 4 4 4 4
4 4 4 4 3 3 3 2 2 3 3 3 3 3 2 2 2 2 2 3 4 5 4 3 4 5 3 3 3 3 3 4 5 4 3 3 4 4 4 4 5 4 4 5
4 4 3 3 3 3 2 2 2 3 3 3 3 3 3 3 2 2 3 3 3 3 3 3 3 3 3 3 3 3 3 3 4 4 4 4 4 4 4 5 4 4 4 5
Wind_Direction
259 267 252 246 242 219 217 224 232 250 253 269 280 290 294 297 302 304 301 300 295 290 288 287 285 280 276 260 250 236 225 231 239 243 241 242 234 229 231 230 232 230 230 233
275 255 254 262 250 231 234 240 247 265 272 271 287 302 298 297 298 299 299 299 297 296 292 284 279 278 279 269 257 241 226 236 244 245 244 243 244 236 232 232 234 233 234 234
270 302 313 265 235 206 217 221 216 241 257 296 310 305 295 290 289 289 296 298 296 293 283 275 271 268 269 264 259 248 248 244 245 242 244 246 249 247 237 234 237 237 238 238
280 346 248 248 168 192 220 246 230 248 275 293 286 293 287 274 272 292 298 297 296 294 292 287 281 280 275 270 260 259 264 260 250 249 255 257 253 251 248 243 236 237 242 240
220 261 276 290 247 178 210 273 234 238 272 293 309 320 304 285 296 289 291 291 289 288 288 287 284 271 263 280 282 276 275 274 262 255 261 260 257 256 252 250 248 241 242 239
196 234 255 262 274 280 102 279 270 248 274 295 334 319 301 328 324 313 314 310 309 311 317 316 312 333 14 299 290 280 282 284 278 267 260 261 261 263 263 257 254 247 251 243
217 239 263 269 290 98 195 266 295 269 278 283 260 254 289 316 317 316 318 319 326 333 335 321 322 31 345 307 289 293 301 301 296 290 281 275 275 273 263 261 256 245 250 254
191 223 255 270 124 196 240 297 298 293 287 278 272 285 300 309 312 320 325 329 336 343 336 335 350 30 338 309 310 318 319 318 316 314 309 304 295 290 275 254 247 242 239 253
203 224 264 196 223 256 277 285 291 288 290 285 287 293 302 307 309 315 319 323 336 339 335 340 350 5 335 315 320 328 340 335 328 330 329 322 310 296 281 252 239 246 233 240
253 262 269 262 274 291 289 278 286 289 292 289 283 293 301 305 310 316 320 324 337 346 336 333 345 349 325 322 339 349 346 339 334 339 336 333 322 301 276 251 244 242 241 245
262 283 303 287 280 288 297 302 306 307 299 289 285 294 298 303 307 308 318 326 333 327 320 322 340 342 333 341 357 1 352 345 344 342 335 332 325 310 294 267 253 249 239 237
262 277 268 287 305 311 309 309 307 308 314 315 296 292 303 305 307 312 317 324 330 332 328 327 337 338 337 342 358 4 355 348 343 339 335 335 334 333 324 309 298 289 284 277
265 290 280 288 314 327 314 315 319 316 306 313 322 312 307 309 319 328 331 333 330 324 320 327 341 340 339 348 357 2 347 336 337 340 339 338 337 335 332 336 331 319 304 298
294 310 302 303 305 320 321 322 331 336 333 328 324 328 326 326 333 338 331 327 328 334 339 346 348 337 337 350 359 358 344 331 339 338 334 335 335 331 323 325 328 330 325 313
318 303 273 297 318 328 336 345 351 346 347 346 342 336 335 333 327 322 322 330 347 350 347 349 347 333 342 353 358 351 343 337 340 343 342 343 343 344 339 334 333 331 333 333
324 333 322 318 320 330 339 342 339 332 335 336 338 337 331 323 319 323 334 346 353 337 330 335 330 326 342 353 359 354 345 339 348 348 347 351 350 347 343 339 338 339 337 330
328 322 320 317 318 323 325 322 317 316 324 327 326 329 334 340 344 344 345 347 340 322 321 327 323 333 347 350 359 355 348 340 341 346 345 341 341 336 331 329 332 333 330 330
295 292 294 293 302 316 326 332 330 324 316 314 323 334 338 338 328 322 326 336 346 344 339 333 329 344 347 344 355 352 345 341 341 339 337 336 335 326 325 328 331 330 330 334
341 332 329 327 322 317 319 322 322 321 320 322 331 329 323 320 316 317 329 340 339 331 330 332 335 350 340 333 344 353 345 341 338 334 332 327 331 333 335 333 328 327 325 330
352 349 346 343 342 333 320 318 322 325 323 323 329 330 327 323 324 328 332 317 299 296 311 322 330 329 325 324 338 352 336 326 322 322 324 322 321 324 326 324 323 322 322 321
343 343 343 338 335 333 323 316 318 319 321 324 317 308 307 315 327 329 325 313 312 313 317 324 336 325 321 323 329 333 317 312 312 310 312 314 315 317 318 318 317 315 315 315
333 333 332 330 329 326 323 320 313 312 317 318 314 313 320 324 327 323 300 282 303 315 326 319 318 320 325 328 330 320 316 314 312 310 307 306 307 307 309 310 309 309 310 311
325 325 325 324 318 314 320 321 313 309 309 309 311 312 308 305 308 310 310 311 310 315 326 314 318 323 331 346 347 332 324 319 314 309 305 302 301 299 300 303 302 302 303 304
325 326 325 324 323 324 320 316 314 311 307 304 304 301 300 308 312 291 285 310 319 321 326 317 324 328 338 358 347 334 324 317 312 307 304 300 297 295 295 296 297 298 298 299
326 325 327 327 323 314 310 315 322 324 324 321 320 319 308 287 288 306 312 312 316 325 327 323 326 333 346 341 330 321 315 308 305 303 297 299 299 297 295 294 294 295 296 295
329 324 316 309 302 305 312 318 319 322 325 324 325 323 319 317 310 311 316 318 317 323 329 324 326 328 330 321 316 312 308 310 318 320 313 309 305 302 300 298 295 292 292 291
330 325 320 321 321 320 319 317 314 315 315 310 311 317 324 329 329 329 327 325 324 325 322 320 321 321 317 314 311 308 306 305 305 304 305 304 301 298 299 297 294 292 292 291